User: anonymous   Login
Location: Newark
(43.6583°N, 1.6617°E)
Time: 09:24:41
(UTC+00:00)
Language:

S-56A Canister/Altair - Orbit

View from above orbital plane
View from above orbital plane
View from above satellite
View from above satellite

Ground track
Ground track

The orbit data is extracted from the following two-line orbital elements,

1    82U 61004B   19237.92575709 -.00000002 +00000-0 +49022-4 0  9991
2    82 038.8534 216.3529 1174173 092.4238 281.1071 12.26046835771410
Epoch (UTC): 25 August 2019 22:13:05
Eccentricity: 0.1174173
inclination: 38.8534°
perigee height: 633 km
apogee height: 2499 km
right ascension of ascending node: 216.3529°
argument of perigee: 92.4238°
revolutions per day: 12.26046835
mean anomaly at epoch: 281.1071°
orbit number at epoch: 77141

The dashed part of the orbit path shows where the satellite is in the earth's shadow,  

DLR